Flag for U.S.A. Weather past 2 weeks in Yonkers, New York, U.S.A.

Now
24 °F

Clear.


Feels Like: 18 °F
Forecast: 12 / 29 °F
Wind: 5 mph from North

Location: Teterboro Airport

Current Time: Jan 29, 2015 at 12:07:03 AM

Latest Report: Jan 28, 2015 at 10:51 PM


Visibility: 10 mi

Pressure: 30.27 "Hg

Humidity: 35%

Dew point: 0 °F

Location of YonkersLocation

Historic Weather in Yonkers — Graph

°F

Yonkers temperature yesterday

Maximum temperature yesterday: 33 °F (at 3:51 PM)
Minimum temperature yesterday: 15 °F (at 3:51 AM)
Average temperature yesterday: 24 °F

Past Weeks' High & Low Weather Summary

 TemperatureHumidityPressure
High42 °F (Jan 16, 12:51 PM)97% (Jan 18, 1:51 PM)30.63 "Hg (Jan 18, 1:51 PM)
Low14 °F (Jan 13, 10:51 PM)26% (Jan 28, 4:51 PM)29.28 "Hg (Jan 24, 3:51 PM)
Average30 °F59%29.99 "Hg
* Reported Jan 13 10:51 PM — Jan 28 10:51 PM, Yonkers, Weather by CustomWeather, © 2014

Note: Actual official high and low records may vary slightly from our data, if they occured in-between our weather recording intervals... More about our weather records

Advertising

Yonkers weather history for previous 24 hours

 ConditionsComfort  
Time TempWeatherWind HumidityBarometerVisibility
10:51 PM
Jan 28
24 °FClear.5 mph35%30.27 "Hg10 mi
9:51 PM25 °FClear.8 mph32%30.25 "Hg10 mi
8:51 PM27 °FClear.6 mph29%30.24 "Hg10 mi
7:51 PM28 °FClear.9 mph30%30.21 "Hg10 mi
6:51 PM29 °FClear.7 mph30%30.19 "Hg10 mi
5:51 PM31 °FClear.9 mph27%30.16 "Hg10 mi
4:51 PM33 °FSunny.9 mph26%30.13 "Hg10 mi
3:51 PM33 °FSunny.10 mph33%30.10 "Hg10 mi
2:51 PM32 °FSunny.13 mph33%30.07 "Hg10 mi
1:51 PM31 °FSunny.14 mph36%30.06 "Hg10 mi
12:51 PM29 °FSunny.13 mph41%30.06 "Hg10 mi
11:51 AM27 °FSunny.14 mph39%30.06 "Hg10 mi
10:51 AM25 °FSunny.12 mph40%30.06 "Hg10 mi
9:51 AM22 °FSunny.12 mph42%30.05 "Hg10 mi
8:51 AM20 °FPassing clouds.12 mph41%30.03 "Hg10 mi
7:51 AM17 °FSunny.10 mph41%30.01 "Hg10 mi
6:51 AM16 °FClear.6 mph43%29.99 "Hg10 mi
5:51 AM16 °FClear.10 mph45%29.96 "Hg10 mi
4:51 AM16 °FClear.15 mph43%29.93 "Hg10 mi
3:51 AM15 °FClear.10 mph46%29.92 "Hg10 mi
2:51 AM16 °FClear.12 mph47%29.91 "Hg10 mi
1:51 AM17 °FClear.9 mph49%29.88 "Hg10 mi
12:51 AM18 °FClear.12 mph52%29.87 "Hg10 mi
Weather by CustomWeather, © 2014

See weather overviewHow to use our weather pages